| time (UTC) | temp F | wind direction | speed knots | gust knots | rain 1hr in | rain 24hr in | rain mn in | humidity % | barometer mb |
| 20260510224513 | 78 | 72 | 0.0 | 0.9 | 0.00 | 0.00 | 0.00 | 56 | 1013.2 |
| 20260510224012 | 78 | 72 | 0.0 | 0.9 | 0.00 | 0.00 | 0.00 | 57 | 1013.2 |
| 20260510223510 | 78 | 72 | 0.9 | 0.9 | 0.00 | 0.00 | 0.00 | 53 | 1013.2 |
| 20260510223008 | 78 | 72 | 0.0 | 0.9 | 0.00 | 0.00 | 0.00 | 55 | 1013.2 |
| 20260510222434 | 79 | 72 | 0.9 | 0.9 | 0.00 | 0.00 | 0.00 | 52 | 1013.2 |
| 20260510221932 | 79 | 72 | 0.0 | 1.7 | 0.00 | 0.00 | 0.00 | 51 | 1013.2 |
| 20260510221431 | 80 | 71 | 0.0 | 3.5 | 0.00 | 0.00 | 0.00 | 48 | 1013.2 |
| 20260510220929 | 80 | 229 | 0.9 | 3.5 | 0.00 | 0.00 | 0.00 | 47 | 1013.2 |
| 20260510220426 | 80 | 227 | 0.9 | 4.3 | 0.00 | 0.00 | 0.00 | 44 | 1013.2 |
| 20260510215923 | 81 | 224 | 2.6 | 4.3 | 0.00 | 0.00 | 0.00 | 43 | 1013.2 |
| 20260510215422 | 81 | 229 | 1.7 | 2.6 | 0.00 | 0.00 | 0.00 | 46 | 1013.2 |
| 20260510214919 | 81 | 129 | 0.0 | 2.6 | 0.00 | 0.00 | 0.00 | 45 | 1013.2 |
| 20260510214417 | 82 | 163 | 0.9 | 1.7 | 0.00 | 0.00 | 0.00 | 43 | 1013.2 |
| 20260510213914 | 83 | 346 | 0.9 | 3.5 | 0.00 | 0.00 | 0.00 | 42 | 1013.2 |
| 20260510213413 | 84 | 220 | 0.9 | 3.5 | 0.00 | 0.00 | 0.00 | 41 | 1013.2 |
| 20260510212912 | 84 | 124 | 0.9 | 4.3 | 0.00 | 0.00 | 0.00 | 41 | 1013.2 |
| 20260510212410 | 84 | 222 | 0.9 | 4.3 | 0.00 | 0.00 | 0.00 | 45 | 1013.2 |
| 20260510211907 | 85 | 278 | 0.0 | 3.5 | 0.00 | 0.00 | 0.00 | 41 | 1013.2 |
| 20260510211404 | 85 | 186 | 0.9 | 3.5 | 0.00 | 0.00 | 0.00 | 40 | 1013.2 |
| 20260510210901 | 85 | 214 | 1.7 | 3.5 | 0.00 | 0.00 | 0.00 | 41 | 1013.2 |
| 20260510210400 | 85 | 330 | 0.9 | 3.5 | 0.00 | 0.00 | 0.00 | 41 | 1013.2 |
| 20260510205857 | 85 | 198 | 0.9 | 3.5 | 0.00 | 0.00 | 0.00 | 40 | 1013.2 |
| 20260510205325 | 85 | 56 | 0.0 | 3.5 | 0.00 | 0.00 | 0.00 | 39 | 1013.2 |
| 20260510204823 | 85 | 13 | 0.9 | 3.5 | 0.00 | 0.00 | 0.00 | 45 | 1013.2 |
| 20260510204321 | 84 | 244 | 0.9 | 3.5 | 0.00 | 0.00 | 0.00 | 39 | 1013.2 |
| 20260510203819 | 84 | 211 | 1.7 | 3.5 | 0.00 | 0.00 | 0.00 | 42 | 1013.5 |
| 20260510203316 | 84 | 254 | 0.9 | 2.6 | 0.00 | 0.00 | 0.00 | 37 | 1013.5 |
| 20260510202814 | 84 | 177 | 0.9 | 2.6 | 0.00 | 0.00 | 0.00 | 38 | 1013.5 |
| 20260510202313 | 84 | 226 | 0.9 | 2.6 | 0.00 | 0.00 | 0.00 | 39 | 1013.5 |
| 20260510201739 | 84 | 305 | 1.7 | 2.6 | 0.00 | 0.00 | 0.00 | 41 | 1013.5 |
| 20260510201237 | 84 | 23 | 0.0 | 3.5 | 0.00 | 0.00 | 0.00 | 44 | 1013.9 |
| 20260510200704 | 83 | 233 | 0.0 | 3.5 | 0.00 | 0.00 | 0.00 | 44 | 1013.9 |
| 20260510200202 | 83 | 186 | 0.9 | 3.5 | 0.00 | 0.00 | 0.00 | 40 | 1013.9 |
| 20260510195659 | 83 | 205 | 1.7 | 3.5 | 0.00 | 0.00 | 0.00 | 40 | 1013.9 |
| 20260510195158 | 83 | 297 | 0.9 | 2.6 | 0.00 | 0.00 | 0.00 | 45 | 1013.9 |
| 20260510194656 | 83 | 330 | 0.9 | 2.6 | 0.00 | 0.00 | 0.00 | 43 | 1013.9 |
| 20260510194155 | 82 | 243 | 1.7 | 2.6 | 0.00 | 0.00 | 0.00 | 44 | 1014.2 |
| 20260510193653 | 82 | 48 | 1.7 | 2.6 | 0.00 | 0.00 | 0.00 | 42 | 1014.2 |
| 20260510193152 | 83 | 132 | 0.9 | 2.6 | 0.00 | 0.00 | 0.00 | 42 | 1014.2 |
| 20260510192650 | 83 | 324 | 1.7 | 4.3 | 0.00 | 0.00 | 0.00 | 40 | 1014.2 |
| 20260510192149 | 83 | 247 | 0.9 | 4.3 | 0.00 | 0.00 | 0.00 | 44 | 1014.2 |
| 20260510191645 | 83 | 299 | 0.9 | 4.3 | 0.00 | 0.00 | 0.00 | 45 | 1014.2 |
| 20260510191144 | 82 | 197 | 2.6 | 4.3 | 0.00 | 0.00 | 0.00 | 42 | 1014.2 |
| 20260510190643 | 82 | 305 | 0.9 | 2.6 | 0.00 | 0.00 | 0.00 | 41 | 1014.2 |
| 20260510190141 | 82 | 231 | 0.9 | 2.6 | 0.00 | 0.00 | 0.00 | 43 | 1014.6 |
| 20260510185639 | 82 | 25 | 0.9 | 2.6 | 0.00 | 0.00 | 0.00 | 43 | 1014.6 |
| 20260510185137 | 83 | 232 | 0.9 | 2.6 | 0.00 | 0.00 | 0.00 | 39 | 1014.6 |
| 20260510184636 | 83 | 120 | 0.9 | 4.3 | 0.00 | 0.00 | 0.00 | 42 | 1014.6 |
| 20260510184102 | 83 | 112 | 0.9 | 4.3 | 0.00 | 0.00 | 0.00 | 43 | 1014.6 |
| 20260510183559 | 83 | 25 | 0.9 | 5.2 | 0.00 | 0.00 | 0.00 | 44 | 1014.6 |
| 20260510183056 | 82 | 271 | 0.9 | 5.2 | 0.00 | 0.00 | 0.00 | 45 | 1014.6 |
| 20260510182555 | 82 | 196 | 1.7 | 4.3 | 0.00 | 0.00 | 0.00 | 44 | 1014.6 |
| 20260510182054 | 82 | 178 | 1.7 | 4.3 | 0.00 | 0.00 | 0.00 | 48 | 1014.6 |
| 20260510181552 | 82 | 196 | 1.7 | 4.3 | 0.00 | 0.00 | 0.00 | 43 | 1014.6 |
| 20260510181020 | 82 | 169 | 0.9 | 4.3 | 0.00 | 0.00 | 0.00 | 48 | 1014.9 |
| 20260510180518 | 81 | 51 | 0.9 | 4.3 | 0.00 | 0.00 | 0.00 | 45 | 1014.9 |
| 20260510180015 | 81 | 187 | 1.7 | 5.2 | 0.00 | 0.00 | 0.00 | 44 | 1014.9 |
| 20260510175514 | 81 | 210 | 1.7 | 5.2 | 0.00 | 0.00 | 0.00 | 48 | 1014.9 |
| 20260510174942 | 81 | 173 | 1.7 | 2.6 | 0.00 | 0.00 | 0.00 | 49 | 1014.9 |
| 20260510174439 | 80 | 300 | 0.9 | 2.6 | 0.00 | 0.00 | 0.00 | 46 | 1014.9 |
| 20260510173937 | 80 | 286 | 1.7 | 3.5 | 0.00 | 0.00 | 0.00 | 46 | 1014.9 |
| 20260510173435 | 80 | 266 | 0.9 | 3.5 | 0.00 | 0.00 | 0.00 | 47 | 1014.9 |
| 20260510172934 | 80 | 338 | 0.9 | 3.5 | 0.00 | 0.00 | 0.00 | 46 | 1014.9 |
| 20260510172433 | 80 | 317 | 1.7 | 3.5 | 0.00 | 0.00 | 0.00 | 45 | 1014.9 |
| 20260510171931 | 79 | 254 | 0.9 | 2.6 | 0.00 | 0.00 | 0.00 | 51 | 1015.2 |
| 20260510171427 | 78 | 232 | 0.9 | 3.5 | 0.00 | 0.00 | 0.00 | 53 | 1015.2 |
| 20260510170924 | 78 | 275 | 0.9 | 3.5 | 0.00 | 0.00 | 0.00 | 51 | 1015.2 |
| 20260510170423 | 78 | 233 | 1.7 | 4.3 | 0.00 | 0.00 | 0.00 | 60 | 1015.6 |
| 20260510165921 | 78 | 214 | 1.7 | 4.3 | 0.00 | 0.00 | 0.00 | 60 | 1015.6 |
| 20260510165420 | 78 | 210 | 0.9 | 4.3 | 0.00 | 0.00 | 0.00 | 62 | 1015.6 |
| 20260510164919 | 77 | 263 | 0.9 | 4.3 | 0.00 | 0.00 | 0.00 | 67 | 1015.6 |
| 20260510164417 | 77 | 188 | 1.7 | 4.3 | 0.00 | 0.00 | 0.00 | 65 | 1015.6 |
| 20260510163915 | 77 | 281 | 0.9 | 1.7 | 0.00 | 0.00 | 0.00 | 65 | 1015.6 |
| 20260510163414 | 77 | 206 | 0.9 | 3.5 | 0.00 | 0.00 | 0.00 | 66 | 1015.6 |
| 20260510162912 | 77 | 179 | 0.9 | 3.5 | 0.00 | 0.00 | 0.00 | 71 | 1015.6 |
| 20260510162409 | 77 | 240 | 0.9 | 3.5 | 0.00 | 0.00 | 0.00 | 69 | 1015.6 |
| 20260510161907 | 76 | 230 | 1.7 | 3.5 | 0.00 | 0.00 | 0.00 | 74 | 1015.6 |
| 20260510161404 | 76 | 264 | 0.9 | 1.7 | 0.00 | 0.00 | 0.00 | 72 | 1015.6 |
| 20260510160903 | 75 | 260 | 0.9 | 3.5 | 0.00 | 0.00 | 0.00 | 72 | 1015.6 |
| 20260510160401 | 74 | 297 | 0.0 | 3.5 | 0.00 | 0.00 | 0.00 | 73 | 1015.6 |
| 20260510155859 | 74 | 123 | 0.9 | 3.5 | 0.00 | 0.00 | 0.00 | 75 | 1015.6 |
| 20260510155255 | 74 | 187 | 2.6 | 3.5 | 0.00 | 0.00 | 0.00 | 78 | 1015.9 |
| 20260510154753 | 74 | 314 | 0.9 | 2.6 | 0.00 | 0.00 | 0.00 | 77 | 1015.9 |
| 20260510154251 | 74 | 234 | 0.9 | 1.7 | 0.00 | 0.00 | 0.00 | 79 | 1015.9 |
| 20260510153749 | 73 | 331 | 0.9 | 1.7 | 0.00 | 0.00 | 0.00 | 81 | 1015.9 |
| 20260510153248 | 72 | 51 | 0.9 | 1.7 | 0.00 | 0.00 | 0.00 | 83 | 1015.9 |
| 20260510152746 | 72 | 251 | 0.9 | 1.7 | 0.00 | 0.00 | 0.00 | 82 | 1015.9 |
| 20260510152243 | 72 | 352 | 0.9 | 1.7 | 0.00 | 0.00 | 0.00 | 85 | 1015.9 |
| 20260510151742 | 71 | 65 | 0.9 | 3.5 | 0.00 | 0.00 | 0.00 | 82 | 1015.9 |
| 20260510151240 | 71 | 301 | 0.9 | 3.5 | 0.00 | 0.00 | 0.00 | 83 | 1015.9 |
| 20260510150737 | 71 | 196 | 0.9 | 3.5 | 0.00 | 0.00 | 0.00 | 84 | 1015.9 |
| 20260510150204 | 70 | 189 | 0.9 | 2.6 | 0.00 | 0.00 | 0.00 | 85 | 1015.9 |
| 20260510145703 | 70 | 232 | 0.9 | 2.6 | 0.00 | 0.00 | 0.00 | 82 | 1015.9 |
| 20260510145200 | 71 | 293 | 0.9 | 3.5 | 0.00 | 0.00 | 0.00 | 82 | 1015.9 |
| 20260510144659 | 70 | 296 | 0.9 | 3.5 | 0.00 | 0.00 | 0.00 | 84 | 1015.9 |
| 20260510144157 | 70 | 257 | 0.9 | 3.5 | 0.00 | 0.00 | 0.00 | 86 | 1015.9 |
| 20260510143656 | 69 | 169 | 1.7 | 3.5 | 0.00 | 0.00 | 0.00 | 87 | 1015.9 |
| 20260510143154 | 69 | 232 | 0.9 | 2.6 | 0.00 | 0.00 | 0.00 | 86 | 1015.9 |
| 20260510142651 | 68 | 233 | 0.9 | 1.7 | 0.00 | 0.00 | 0.00 | 88 | 1015.9 |
| 20260510142149 | 68 | 318 | 0.9 | 2.6 | 0.00 | 0.00 | 0.00 | 88 | 1015.9 |
| 20260510141545 | 68 | 290 | 0.9 | 2.6 | 0.00 | 0.00 | 0.00 | 88 | 1015.9 |
| 20260510141044 | 68 | 267 | 0.9 | 2.6 | 0.00 | 0.00 | 0.00 | 87 | 1015.9 |
| 20260510140542 | 67 | 241 | 0.9 | 1.7 | 0.00 | 0.00 | 0.00 | 88 | 1015.9 |
| 20260510140008 | 67 | 194 | 0.0 | 0.9 | 0.00 | 0.00 | 0.00 | 90 | 1015.9 |
| 20260510135505 | 67 | 281 | 0.9 | 0.9 | 0.00 | 0.00 | 0.00 | 91 | 1015.9 |
| 20260510134827 | 67 | 204 | 0.0 | 0.9 | 0.00 | 0.00 | 0.00 | 95 | 1015.6 |
| 20260510134325 | 66 | 180 | 0.0 | 0.9 | 0.00 | 0.00 | 0.00 | 95 | 1015.9 |
| 20260510133823 | 65 | 208 | 0.9 | 0.9 | 0.00 | 0.00 | 0.00 | 95 | 1015.6 |
| 20260510133321 | 63 | 64 | 0.0 | 0.9 | 0.00 | 0.00 | 0.00 | 95 | 1015.6 |
| 20260510132819 | 62 | 63 | 0.0 | 0.9 | 0.00 | 0.00 | 0.00 | 95 | 1015.9 |
| 20260510132318 | 62 | 64 | 0.9 | 0.9 | 0.00 | 0.00 | 0.00 | 95 | 1015.9 |
| 20260510131816 | 61 | 66 | 0.9 | 0.9 | 0.00 | 0.00 | 0.00 | 95 | 1015.9 |
| 20260510131315 | 61 | 53 | 0.9 | 0.9 | 0.00 | 0.00 | 0.00 | 95 | 1015.9 |
| 20260510130742 | 61 | 84 | 0.0 | 0.0 | 0.00 | 0.00 | 0.00 | 95 | 1015.9 |
| 20260510130240 | 60 | 84 | 0.0 | 0.0 | 0.00 | 0.00 | 0.00 | 95 | 1015.9 |
| 20260510125738 | 59 | 85 | 0.0 | 0.9 | 0.00 | 0.00 | 0.00 | 95 | 1015.6 |
| 20260510125235 | 58 | 84 | 0.0 | 0.9 | 0.00 | 0.00 | 0.00 | 95 | 1015.6 |
| 20260510124733 | 58 | 84 | 0.0 | 0.9 | 0.00 | 0.00 | 0.00 | 95 | 1015.6 |
| 20260510124231 | 58 | 85 | 0.9 | 0.9 | 0.00 | 0.00 | 0.00 | 95 | 1015.9 |
| 20260510123627 | 57 | 84 | 0.0 | 1.7 | 0.00 | 0.00 | 0.00 | 95 | 1015.9 |
| 20260510123124 | 57 | 84 | 0.9 | 1.7 | 0.00 | 0.00 | 0.00 | 95 | 1015.6 |
| 20260510122621 | 57 | 77 | 0.9 | 1.7 | 0.00 | 0.00 | 0.00 | 95 | 1015.6 |
| 20260510122120 | 56 | 77 | 0.9 | 1.7 | 0.00 | 0.00 | 0.00 | 95 | 1015.6 |
| 20260510121618 | 56 | 95 | 0.9 | 1.7 | 0.00 | 0.00 | 0.00 | 95 | 1015.6 |
| 20260510121117 | 55 | 95 | 0.0 | 1.7 | 0.00 | 0.00 | 0.00 | 95 | 1015.6 |
| 20260510120615 | 55 | 94 | 0.0 | 1.7 | 0.00 | 0.00 | 0.00 | 95 | 1015.6 |
| 20260510120114 | 54 | 103 | 0.0 | 1.7 | 0.00 | 0.00 | 0.00 | 95 | 1015.6 |
| 20260510115612 | 54 | 91 | 0.9 | 1.7 | 0.00 | 0.00 | 0.00 | 95 | 1015.2 |
| 20260510115110 | 54 | 87 | 0.9 | 1.7 | 0.00 | 0.00 | 0.00 | 95 | 1015.2 |
| 20260510114608 | 53 | 100 | 0.9 | 1.7 | 0.00 | 0.00 | 0.00 | 95 | 1015.2 |
| 20260510114106 | 53 | 101 | 0.9 | 2.6 | 0.00 | 0.00 | 0.00 | 95 | 1015.2 |
| 20260510113603 | 53 | 95 | 1.7 | 2.6 | 0.00 | 0.00 | 0.00 | 95 | 1014.9 |
| 20260510113030 | 52 | 104 | 0.9 | 0.9 | 0.00 | 0.00 | 0.00 | 95 | 1015.2 |
| 20260510112528 | 52 | 113 | 0.9 | 0.9 | 0.00 | 0.00 | 0.00 | 95 | 1014.9 |
| 20260510112025 | 52 | 115 | 0.9 | 0.9 | 0.00 | 0.00 | 0.00 | 95 | 1014.9 |
| 20260510111420 | 52 | 115 | 0.0 | 0.0 | 0.00 | 0.00 | 0.00 | 95 | 1014.6 |
| 20260510110918 | 52 | 115 | 0.0 | 0.0 | 0.00 | 0.00 | 0.00 | 95 | 1014.6 |
| 20260510110417 | 52 | 115 | 0.0 | 0.0 | 0.00 | 0.00 | 0.00 | 95 | 1014.6 |
| 20260510105915 | 52 | 115 | 0.0 | 0.0 | 0.00 | 0.00 | 0.00 | 95 | 1014.6 |
| 20260510105413 | 52 | 115 | 0.0 | 0.0 | 0.00 | 0.00 | 0.00 | 95 | 1014.2 |
| 20260510104840 | 52 | 115 | 0.0 | 0.0 | 0.00 | 0.00 | 0.00 | 95 | 1014.2 |
| 20260510104339 | 52 | 115 | 0.0 | 0.0 | 0.00 | 0.00 | 0.00 | 95 | 1014.2 |
| 20260510103837 | 52 | 115 | 0.0 | 0.0 | 0.00 | 0.00 | 0.00 | 95 | 1014.2 |
| 20260510103336 | 52 | 115 | 0.0 | 0.9 | 0.00 | 0.00 | 0.00 | 95 | 1014.2 |
| 20260510102834 | 52 | 115 | 0.0 | 1.7 | 0.00 | 0.00 | 0.00 | 95 | 1014.2 |
| 20260510102301 | 52 | 115 | 0.0 | 1.7 | 0.00 | 0.00 | 0.00 | 95 | 1014.2 |
| 20260510101800 | 52 | 115 | 0.0 | 1.7 | 0.00 | 0.00 | 0.00 | 95 | 1014.2 |
| 20260510101257 | 53 | 115 | 0.9 | 1.7 | 0.00 | 0.00 | 0.00 | 95 | 1013.9 |
| 20260510100756 | 52 | 153 | 0.0 | 0.9 | 0.00 | 0.00 | 0.00 | 95 | 1013.9 |
| 20260510100254 | 52 | 73 | 0.0 | 0.0 | 0.00 | 0.00 | 0.00 | 95 | 1013.5 |
| 20260510095753 | 52 | 73 | 0.0 | 0.0 | 0.00 | 0.00 | 0.00 | 95 | 1013.5 |
| 20260510095252 | 52 | 73 | 0.0 | 0.0 | 0.00 | 0.00 | 0.00 | 95 | 1013.5 |
| 20260510094749 | 52 | 74 | 0.0 | 0.0 | 0.00 | 0.00 | 0.00 | 95 | 1013.5 |
| 20260510094248 | 52 | 74 | 0.0 | 0.0 | 0.00 | 0.00 | 0.00 | 95 | 1013.5 |
| 20260510093747 | 52 | 73 | 0.0 | 0.0 | 0.00 | 0.00 | 0.00 | 95 | 1013.5 |
| 20260510093245 | 53 | 74 | 0.0 | 0.0 | 0.00 | 0.00 | 0.00 | 95 | 1013.5 |
| 20260510092744 | 53 | 73 | 0.0 | 0.0 | 0.00 | 0.00 | 0.00 | 95 | 1013.5 |
| 20260510092210 | 53 | 74 | 0.0 | 0.0 | 0.00 | 0.00 | 0.00 | 95 | 1013.2 |
| 20260510091709 | 53 | 73 | 0.0 | 0.9 | 0.00 | 0.00 | 0.00 | 95 | 1013.5 |
| 20260510091136 | 53 | 74 | 0.0 | 0.9 | 0.00 | 0.00 | 0.00 | 95 | 1013.5 |
| 20260510090634 | 54 | 73 | 0.0 | 1.7 | 0.00 | 0.00 | 0.00 | 95 | 1013.2 |
| 20260510090100 | 54 | 73 | 0.9 | 1.7 | 0.00 | 0.00 | 0.00 | 95 | 1013.2 |
| 20260510085559 | 54 | 72 | 0.9 | 2.6 | 0.00 | 0.00 | 0.00 | 95 | 1013.2 |
| 20260510085057 | 53 | 104 | 0.9 | 2.6 | 0.00 | 0.00 | 0.00 | 95 | 1013.2 |
| 20260510084556 | 53 | 93 | 1.7 | 1.7 | 0.00 | 0.00 | 0.00 | 95 | 1012.9 |
| 20260510084054 | 53 | 105 | 0.0 | 0.9 | 0.00 | 0.00 | 0.00 | 95 | 1012.9 |
| 20260510083553 | 53 | 105 | 0.0 | 0.9 | 0.00 | 0.00 | 0.00 | 95 | 1012.9 |
| 20260510083052 | 53 | 105 | 0.0 | 0.9 | 0.00 | 0.00 | 0.00 | 95 | 1012.9 |
| 20260510082551 | 53 | 106 | 0.0 | 0.9 | 0.00 | 0.00 | 0.00 | 95 | 1012.5 |
| 20260510082049 | 53 | 118 | 0.0 | 0.0 | 0.00 | 0.00 | 0.00 | 95 | 1012.5 |
| 20260510081548 | 53 | 118 | 0.0 | 0.0 | 0.00 | 0.00 | 0.00 | 95 | 1012.5 |
| 20260510081015 | 53 | 118 | 0.0 | 0.0 | 0.00 | 0.00 | 0.00 | 95 | 1012.5 |
| 20260510080513 | 53 | 118 | 0.0 | 0.0 | 0.00 | 0.00 | 0.00 | 95 | 1012.5 |
| 20260510080011 | 53 | 118 | 0.0 | 0.0 | 0.00 | 0.00 | 0.00 | 95 | 1012.5 |
| 20260510075510 | 53 | 118 | 0.0 | 0.0 | 0.00 | 0.00 | 0.00 | 95 | 1012.2 |
| 20260510075008 | 54 | 118 | 0.0 | 0.0 | 0.00 | 0.00 | 0.00 | 95 | 1012.2 |
| 20260510074507 | 54 | 118 | 0.0 | 0.0 | 0.00 | 0.00 | 0.00 | 95 | 1012.2 |
| 20260510074005 | 54 | 118 | 0.0 | 0.0 | 0.00 | 0.00 | 0.00 | 95 | 1012.2 |
| 20260510073502 | 54 | 119 | 0.0 | 0.0 | 0.00 | 0.00 | 0.00 | 95 | 1012.2 |
| 20260510073001 | 54 | 119 | 0.0 | 0.0 | 0.00 | 0.00 | 0.00 | 95 | 1012.2 |
| 20260510072459 | 54 | 118 | 0.0 | 0.0 | 0.00 | 0.00 | 0.00 | 95 | 1012.2 |
| 20260510071957 | 54 | 118 | 0.0 | 0.0 | 0.00 | 0.00 | 0.00 | 95 | 1012.2 |
| 20260510071456 | 54 | 119 | 0.0 | 0.0 | 0.00 | 0.00 | 0.00 | 95 | 1012.2 |
| 20260510070953 | 54 | 118 | 0.0 | 0.0 | 0.00 | 0.00 | 0.00 | 95 | 1012.2 |
| 20260510070452 | 54 | 118 | 0.0 | 0.0 | 0.00 | 0.00 | 0.00 | 95 | 1012.2 |
| 20260510065918 | 54 | 118 | 0.0 | 0.0 | 0.00 | 0.00 | 0.00 | 95 | 1012.2 |
| 20260510065416 | 54 | 118 | 0.0 | 0.0 | 0.00 | 0.00 | 0.00 | 95 | 1012.2 |
| 20260510064913 | 54 | 119 | 0.0 | 0.0 | 0.00 | 0.00 | 0.00 | 95 | 1012.2 |
| 20260510064412 | 54 | 119 | 0.0 | 0.0 | 0.00 | 0.00 | 0.00 | 95 | 1012.2 |
| 20260510063911 | 54 | 118 | 0.0 | 0.0 | 0.00 | 0.00 | 0.00 | 95 | 1012.2 |
| 20260510063409 | 55 | 119 | 0.0 | 0.0 | 0.00 | 0.00 | 0.00 | 95 | 1012.2 |
| 20260510062907 | 55 | 119 | 0.0 | 0.9 | 0.00 | 0.00 | 0.00 | 95 | 1012.2 |
| 20260510062406 | 55 | 119 | 0.0 | 0.9 | 0.00 | 0.00 | 0.00 | 95 | 1012.2 |
| 20260510061905 | 55 | 118 | 0.0 | 0.9 | 0.00 | 0.00 | 0.00 | 95 | 1012.2 |
| 20260510061402 | 55 | 118 | 0.0 | 0.9 | 0.00 | 0.00 | 0.00 | 95 | 1012.2 |
| 20260510060828 | 55 | 119 | 0.0 | 0.0 | 0.00 | 0.00 | 0.00 | 95 | 1012.2 |
| 20260510060254 | 55 | 118 | 0.0 | 0.0 | 0.00 | 0.00 | 0.00 | 95 | 1012.2 |
| 20260510055753 | 55 | 118 | 0.0 | 0.0 | 0.00 | 0.00 | 0.00 | 95 | 1012.2 |
| 20260510055251 | 55 | 118 | 0.0 | 0.0 | 0.00 | 0.00 | 0.00 | 95 | 1012.2 |
| 20260510054749 | 56 | 118 | 0.0 | 0.0 | 0.00 | 0.00 | 0.00 | 95 | 1012.2 |
| 20260510054248 | 56 | 119 | 0.0 | 0.0 | 0.00 | 0.00 | 0.00 | 95 | 1012.2 |
| 20260510053612 | 56 | 118 | 0.0 | 0.0 | 0.00 | 0.00 | 0.00 | 95 | 1012.2 |
| 20260510053109 | 56 | 119 | 0.0 | 0.0 | 0.00 | 0.00 | 0.00 | 95 | 1012.5 |
| 20260510052536 | 56 | 118 | 0.0 | 0.0 | 0.00 | 0.00 | 0.00 | 95 | 1012.5 |
| 20260510052033 | 57 | 119 | 0.0 | 0.0 | 0.00 | 0.00 | 0.00 | 95 | 1012.5 |
| 20260510051531 | 57 | 119 | 0.0 | 0.9 | 0.00 | 0.00 | 0.00 | 95 | 1012.5 |
| 20260510051030 | 57 | 118 | 0.0 | 0.9 | 0.00 | 0.00 | 0.00 | 95 | 1012.5 |
| 20260510050527 | 57 | 119 | 0.0 | 0.9 | 0.00 | 0.00 | 0.00 | 95 | 1012.2 |
| 20260510050026 | 57 | 118 | 0.0 | 0.9 | 0.00 | 0.00 | 0.00 | 95 | 1012.2 |
| 20260510045524 | 57 | 118 | 0.0 | 0.9 | 0.00 | 0.00 | 0.00 | 95 | 1012.5 |
| 20260510045023 | 57 | 119 | 0.0 | 0.0 | 0.00 | 0.00 | 0.00 | 95 | 1012.5 |
| 20260510044521 | 57 | 119 | 0.0 | 0.0 | 0.00 | 0.00 | 0.00 | 95 | 1012.2 |
| 20260510044020 | 56 | 118 | 0.0 | 0.0 | 0.00 | 0.00 | 0.00 | 95 | 1012.2 |
| 20260510043519 | 56 | 118 | 0.0 | 0.0 | 0.00 | 0.00 | 0.00 | 94 | 1012.2 |
| 20260510042946 | 56 | 119 | 0.0 | 0.0 | 0.00 | 0.00 | 0.00 | 94 | 1012.2 |
| 20260510042443 | 56 | 119 | 0.0 | 0.0 | 0.00 | 0.00 | 0.00 | 94 | 1012.2 |
| 20260510041942 | 56 | 119 | 0.0 | 0.0 | 0.00 | 0.00 | 0.00 | 94 | 1012.2 |
| 20260510041439 | 56 | 118 | 0.0 | 0.0 | 0.00 | 0.00 | 0.00 | 94 | 1012.2 |
| 20260510040938 | 56 | 118 | 0.0 | 0.0 | 0.00 | 0.00 | 0.00 | 94 | 1012.2 |
| 20260510040435 | 57 | 118 | 0.0 | 0.0 | 0.00 | 0.00 | 0.00 | 93 | 1012.2 |
| 20260510035830 | 57 | 118 | 0.0 | 0.0 | 0.00 | 0.00 | 0.00 | 93 | 1012.2 |
| 20260510035328 | 57 | 118 | 0.0 | 0.0 | 0.00 | 0.00 | 0.00 | 93 | 1012.2 |
| 20260510034827 | 57 | 118 | 0.0 | 0.0 | 0.00 | 0.00 | 0.00 | 93 | 1012.2 |
| 20260510034326 | 57 | 119 | 0.0 | 0.0 | 0.00 | 0.00 | 0.00 | 93 | 1012.2 |
| 20260510033824 | 57 | 118 | 0.0 | 0.0 | 0.00 | 0.00 | 0.00 | 93 | 1011.9 |
| 20260510033221 | 57 | 118 | 0.0 | 0.0 | 0.00 | 0.00 | 0.00 | 93 | 1011.9 |
| 20260510032720 | 58 | 118 | 0.0 | 0.0 | 0.00 | 0.00 | 0.00 | 92 | 1011.9 |
| 20260510032218 | 58 | 118 | 0.0 | 0.0 | 0.00 | 0.00 | 0.00 | 92 | 1012.2 |
| 20260510031717 | 58 | 118 | 0.0 | 0.0 | 0.00 | 0.00 | 0.00 | 92 | 1011.9 |
| 20260510031215 | 58 | 118 | 0.0 | 0.0 | 0.00 | 0.00 | 0.00 | 91 | 1011.9 |
| 20260510030714 | 58 | 118 | 0.0 | 0.0 | 0.00 | 0.00 | 0.00 | 91 | 1011.9 |
| 20260510030141 | 58 | 118 | 0.0 | 0.0 | 0.00 | 0.00 | 0.00 | 91 | 1011.9 |
| 20260510025608 | 58 | 119 | 0.0 | 0.0 | 0.00 | 0.00 | 0.00 | 91 | 1011.9 |
| 20260510025107 | 59 | 119 | 0.0 | 0.0 | 0.00 | 0.00 | 0.00 | 90 | 1011.5 |
| 20260510024606 | 59 | 118 | 0.0 | 0.0 | 0.00 | 0.00 | 0.00 | 90 | 1011.5 |
| 20260510024032 | 59 | 118 | 0.0 | 0.0 | 0.00 | 0.00 | 0.00 | 89 | 1011.9 |
| 20260510023459 | 59 | 119 | 0.0 | 0.0 | 0.00 | 0.00 | 0.00 | 89 | 1011.5 |
| 20260510022956 | 59 | 119 | 0.0 | 0.0 | 0.00 | 0.00 | 0.00 | 88 | 1011.5 |
| 20260510022453 | 60 | 119 | 0.0 | 0.0 | 0.00 | 0.00 | 0.00 | 88 | 1011.5 |
| 20260510021920 | 60 | 119 | 0.0 | 0.9 | 0.00 | 0.00 | 0.00 | 88 | 1011.5 |
| 20260510021418 | 60 | 118 | 0.0 | 0.9 | 0.00 | 0.00 | 0.00 | 88 | 1011.5 |
| 20260510020916 | 60 | 119 | 0.0 | 0.9 | 0.00 | 0.00 | 0.00 | 88 | 1011.5 |
| 20260510020415 | 60 | 119 | 0.9 | 0.9 | 0.00 | 0.00 | 0.00 | 88 | 1011.2 |
| 20260510015913 | 60 | 118 | 0.0 | 0.0 | 0.00 | 0.00 | 0.00 | 88 | 1011.2 |
| 20260510015411 | 60 | 119 | 0.0 | 0.9 | 0.00 | 0.00 | 0.00 | 88 | 1011.2 |
| 20260510014838 | 61 | 119 | 0.0 | 0.9 | 0.00 | 0.00 | 0.00 | 88 | 1010.8 |
| 20260510014305 | 61 | 118 | 0.0 | 0.9 | 0.00 | 0.00 | 0.00 | 87 | 1010.8 |
| 20260510013733 | 61 | 119 | 0.9 | 0.9 | 0.00 | 0.00 | 0.00 | 87 | 1010.8 |
| 20260510013230 | 61 | 118 | 0.0 | 0.9 | 0.00 | 0.00 | 0.00 | 87 | 1010.5 |
| 20260510012727 | 61 | 131 | 0.0 | 0.0 | 0.00 | 0.00 | 0.00 | 86 | 1010.5 |
| 20260510012225 | 62 | 131 | 0.0 | 0.0 | 0.00 | 0.00 | 0.00 | 86 | 1010.5 |
| 20260510011726 | 62 | 131 | 0.0 | 0.0 | 0.00 | 0.00 | 0.00 | 86 | 1010.5 |
| 20260510011222 | 62 | 131 | 0.0 | 0.0 | 0.00 | 0.00 | 0.00 | 85 | 1010.2 |
| 20260510010721 | 63 | 131 | 0.0 | 0.0 | 0.00 | 0.00 | 0.00 | 84 | 1010.2 |
| 20260510010148 | 63 | 131 | 0.0 | 0.0 | 0.00 | 0.00 | 0.00 | 83 | 1010.2 |
| 20260510005647 | 64 | 131 | 0.0 | 0.0 | 0.00 | 0.00 | 0.00 | 83 | 1010.2 |
| 20260510005146 | 64 | 131 | 0.0 | 0.0 | 0.00 | 0.00 | 0.00 | 83 | 1009.8 |
| 20260510004645 | 64 | 131 | 0.0 | 0.0 | 0.00 | 0.00 | 0.00 | 82 | 1009.8 |
| 20260510004143 | 65 | 131 | 0.0 | 0.0 | 0.00 | 0.00 | 0.00 | 82 | 1009.8 |
| 20260510003611 | 65 | 131 | 0.0 | 0.0 | 0.00 | 0.00 | 0.00 | 81 | 1009.8 |
| 20260510003107 | 66 | 131 | 0.0 | 0.0 | 0.00 | 0.00 | 0.00 | 80 | 1009.8 |
| 20260510002604 | 66 | 131 | 0.0 | 0.0 | 0.00 | 0.00 | 0.00 | 80 | 1009.8 |
| 20260510002031 | 67 | 131 | 0.0 | 0.0 | 0.00 | 0.00 | 0.00 | 80 | 1009.8 |
| 20260510001529 | 67 | 131 | 0.0 | 0.0 | 0.00 | 0.00 | 0.00 | 79 | 1009.5 |
| 20260510001028 | 68 | 131 | 0.0 | 0.9 | 0.00 | 0.00 | 0.00 | 79 | 1009.5 |
| 20260510000526 | 68 | 131 | 0.0 | 0.9 | 0.00 | 0.00 | 0.00 | 77 | 1009.5 |
| 20260510000025 | 69 | 131 | 0.0 | 0.9 | 0.00 | 0.00 | 0.00 | 76 | 1009.5 |
| 20260509235522 | 70 | 131 | 0.0 | 0.9 | 0.00 | 0.00 | 0.00 | 75 | 1009.5 |
| 20260509235021 | 70 | 133 | 0.0 | 0.0 | 0.00 | 0.00 | 0.00 | 75 | 1009.5 |
| 20260509234520 | 71 | 133 | 0.0 | 0.0 | 0.00 | 0.00 | 0.00 | 74 | 1009.1 |
| 20260509234019 | 71 | 133 | 0.0 | 0.0 | 0.00 | 0.00 | 0.00 | 74 | 1009.1 |
| 20260509233517 | 72 | 132 | 0.0 | 0.0 | 0.00 | 0.00 | 0.00 | 72 | 1009.1 |
| 20260509233015 | 72 | 133 | 0.0 | 0.0 | 0.00 | 0.00 | 0.00 | 71 | 1009.1 |
| 20260509232441 | 73 | 133 | 0.0 | 0.0 | 0.00 | 0.00 | 0.00 | 68 | 1008.8 |
| 20260509231939 | 73 | 132 | 0.0 | 0.0 | 0.00 | 0.00 | 0.00 | 68 | 1009.1 |
| 20260509231438 | 73 | 132 | 0.0 | 0.0 | 0.00 | 0.00 | 0.00 | 67 | 1009.1 |
| 20260509230936 | 73 | 132 | 0.0 | 0.0 | 0.00 | 0.00 | 0.00 | 67 | 1009.1 |
| 20260509230435 | 73 | 133 | 0.0 | 0.0 | 0.00 | 0.00 | 0.00 | 66 | 1009.1 |
| 20260509225933 | 74 | 103 | 0.0 | 0.0 | 0.00 | 0.00 | 0.00 | 63 | 1008.8 |
| 20260509225431 | 74 | 160 | 0.0 | 0.0 | 0.00 | 0.00 | 0.00 | 61 | 1008.8 |
| 20260509224930 | 74 | 160 | 0.0 | 0.9 | 0.00 | 0.00 | 0.00 | 64 | 1008.8 |